Weather History for Greenville, NC

Change the Weather History Date:

Saturday, October 27, 2012

  Actual Average Record
Temperature  
Mean Temperature 62 °F -  
Max Temperature 64 °F 69 °F 87 °F (2010)
Min Temperature 59 °F 46 °F 23 °F (1962)
Degree Days  
Heating Degree Days 4    
Growing Degree Days 12 (Base 50)    
Moisture  
Dew Point 60 °F    
Average Humidity 91    
Maximum Humidity 100    
Minimum Humidity 83    
Precipitation  
Precipitation 0.30 in - - ()
Sea Level Pressure  
Sea Level Pressure 29.76 in    
Wind  
Wind Speed 13 mph (NNE)    
Max Wind Speed 22 mph    
Max Gust Speed 30 mph    
Visibility 10 miles    
Events      
Averages and records for this station are not official NWS values.
T = Trace of Precipitation, MM = Missing Value Source: NWS Daily Summary

Daily Weather History Graph

Daily Weather History Graph

Search for Another Location

Airport:

Trip Planner

Search our weather history database for the weather conditions in past years. The results will help you decide how hot, cold, wet, or windy it might be!

Date:

Astronomy

Oct. 27, 2012 Rise Set
Actual Time 7:27 AM EDT 6:18 PM EDT
Civil Twilight 7:01 AM EDT 6:45 PM EDT
Nautical Twilight 6:31 AM EDT 7:15 PM EDT
Astronomical Twilight 6:01 AM EDT 7:44 PM EDT
Moon 5:01 PM EDT (10/27) 5:23 AM EDT (10/27)
Length of Visible Light 11h 44m
Length of Day
10h 51m
Waxing Gibbous, 96% of the Moon is Illuminated
Oct 27
Waxing Gibbous
Oct 29
Full
Nov 6
Last Quarter
Nov 13
New
Nov 20
First Quarter

Hourly Weather History & Observations

Time (EDT) Temp. Dew Point Humidity Pressure Visibility Wind Dir Wind Speed Gust Speed Precip Events Conditions
12:15 AM 62.6 °F 60.8 °F 94% 29.92 in 10.0 mi NE 9.2 mph - N/A   Clear
12:35 AM 62.6 °F 60.8 °F 94% 29.91 in 10.0 mi NNE 10.4 mph - N/A   Scattered Clouds
1:15 AM 62.6 °F 60.8 °F 94% 29.90 in 10.0 mi NNE 10.4 mph - N/A   Scattered Clouds
1:35 AM 62.6 °F 60.8 °F 94% 29.88 in 10.0 mi NNE 10.4 mph 16.1 mph N/A   Clear
1:55 AM 62.6 °F 60.8 °F 94% 29.88 in 10.0 mi NNE 10.4 mph - N/A   Clear
2:15 AM 62.6 °F 60.8 °F 94% 29.86 in 10.0 mi NNE 9.2 mph - N/A   Clear
2:35 AM 62.6 °F 60.8 °F 94% 29.86 in 10.0 mi NNE 11.5 mph 16.1 mph N/A   Scattered Clouds
2:55 AM 62.6 °F 60.8 °F 94% 29.85 in 10.0 mi NNE 9.2 mph - N/A   Scattered Clouds
3:15 AM 62.6 °F 60.8 °F 94% 29.85 in 10.0 mi NNE 9.2 mph - N/A   Scattered Clouds
3:35 AM 62.6 °F 60.8 °F 94% 29.83 in 10.0 mi NNE 9.2 mph - N/A   Scattered Clouds
3:55 AM 62.6 °F 60.8 °F 94% 29.83 in 10.0 mi NNE 11.5 mph 17.3 mph N/A   Scattered Clouds
4:35 AM 62.6 °F 60.8 °F 94% 29.82 in 10.0 mi NNE 12.7 mph - N/A   Scattered Clouds
4:55 AM 62.6 °F 60.8 °F 94% 29.81 in 10.0 mi NNE 15.0 mph 21.9 mph N/A   Scattered Clouds
5:15 AM 62.6 °F 59.0 °F 88% 29.81 in 10.0 mi NNE 12.7 mph - N/A   Clear
5:35 AM 62.6 °F 59.0 °F 88% 29.80 in 10.0 mi NNE 12.7 mph 19.6 mph N/A   Clear
5:55 AM 62.6 °F 59.0 °F 88% 29.80 in 10.0 mi NNE 10.4 mph - N/A   Clear
6:15 AM 62.6 °F 60.8 °F 94% 29.80 in 10.0 mi NNE 11.5 mph 18.4 mph N/A   Clear
6:35 AM 62.6 °F 60.8 °F 94% 29.79 in 10.0 mi NE 10.4 mph 20.7 mph N/A   Clear
6:55 AM 62.6 °F 60.8 °F 94% 29.79 in 10.0 mi NE 13.8 mph 20.7 mph N/A   Clear
7:15 AM 62.6 °F 59.0 °F 88% 29.80 in 10.0 mi NE 12.7 mph 19.6 mph N/A   Scattered Clouds
7:55 AM 62.6 °F 59.0 °F 88% 29.80 in 10.0 mi NNE 13.8 mph - N/A   Mostly Cloudy
8:15 AM 62.6 °F 59.0 °F 88% 29.80 in 10.0 mi NNE 13.8 mph 19.6 mph N/A   Overcast
8:35 AM 62.6 °F 59.0 °F 88% 29.80 in 10.0 mi NNE 16.1 mph 24.2 mph N/A   Mostly Cloudy
8:55 AM 62.6 °F 59.0 °F 88% 29.80 in 10.0 mi NE 13.8 mph 20.7 mph N/A   Mostly Cloudy
9:15 AM 62.6 °F 59.0 °F 88% 29.80 in 10.0 mi NE 12.7 mph 20.7 mph N/A   Overcast
9:35 AM 62.6 °F 59.0 °F 88% 29.80 in 10.0 mi NNE 16.1 mph 23.0 mph N/A   Overcast
10:15 AM 64.4 °F 59.0 °F 83% 29.79 in 10.0 mi NNE 15.0 mph 23.0 mph N/A   Overcast
10:35 AM 64.4 °F 59.0 °F 83% 29.79 in 10.0 mi NNE 15.0 mph 21.9 mph N/A   Mostly Cloudy
10:55 AM 64.4 °F 59.0 °F 83% 29.79 in 10.0 mi NNE 15.0 mph 24.2 mph N/A   Mostly Cloudy
11:35 AM 64.4 °F 59.0 °F 83% 29.78 in 10.0 mi NNE 13.8 mph 23.0 mph N/A   Overcast
11:55 AM 64.4 °F 59.0 °F 83% 29.78 in 10.0 mi NE 15.0 mph 26.5 mph N/A   Mostly Cloudy
12:15 PM 64.4 °F 59.0 °F 83% 29.77 in 10.0 mi NE 15.0 mph 21.9 mph N/A   Overcast
12:35 PM 64.4 °F 59.0 °F 83% 29.76 in 10.0 mi NE 11.5 mph 21.9 mph N/A   Overcast
12:55 PM 64.4 °F 59.0 °F 83% 29.75 in 10.0 mi NE 15.0 mph 19.6 mph N/A   Overcast
1:15 PM 64.4 °F 59.0 °F 83% 29.74 in 10.0 mi NNE 12.7 mph 19.6 mph N/A   Overcast
1:35 PM 64.4 °F 59.0 °F 83% 29.74 in 10.0 mi NE 12.7 mph - N/A   Overcast
1:55 PM 64.4 °F 59.0 °F 83% 29.73 in 10.0 mi NE 10.4 mph - N/A   Overcast
2:15 PM 62.6 °F 59.0 °F 88% 29.72 in 7.0 mi NNE 12.7 mph 16.1 mph 0.01 in   Overcast
2:35 PM 62.6 °F 60.8 °F 94% 29.72 in 10.0 mi NNE 15.0 mph 18.4 mph 0.02 in   Overcast
2:55 PM 62.6 °F 60.8 °F 94% 29.71 in 10.0 mi NE 17.3 mph 20.7 mph 0.02 in   Overcast
3:15 PM 62.6 °F 60.8 °F 94% 29.70 in 10.0 mi NNE 18.4 mph 24.2 mph 0.01 in   Overcast
3:35 PM 62.6 °F 60.8 °F 94% 29.70 in 10.0 mi NNE 13.8 mph 18.4 mph 0.01 in   Overcast
3:55 PM 62.6 °F 60.8 °F 94% 29.69 in 10.0 mi NNE 16.1 mph 23.0 mph 0.01 in   Overcast
4:15 PM 62.6 °F 60.8 °F 94% 29.69 in 10.0 mi NNE 16.1 mph 23.0 mph 0.01 in   Overcast
4:35 PM 62.6 °F 60.8 °F 94% 29.69 in 10.0 mi NNE 15.0 mph 23.0 mph 0.01 in   Overcast
4:55 PM 60.8 °F 59.0 °F 94% 29.68 in 10.0 mi NNE 17.3 mph 26.5 mph 0.02 in   Overcast
5:15 PM 60.8 °F 59.0 °F 94% 29.68 in 10.0 mi NNE 15.0 mph 25.3 mph N/A   Overcast
5:35 PM 60.8 °F 59.0 °F 94% 29.68 in 10.0 mi NNE 16.1 mph 23.0 mph 0.01 in   Overcast
5:55 PM 60.8 °F 59.0 °F 94% 29.68 in 10.0 mi NNE 15.0 mph 24.2 mph 0.01 in   Overcast
6:15 PM 60.8 °F 59.0 °F 94% 29.68 in 10.0 mi NNE 15.0 mph 25.3 mph 0.01 in   Overcast
6:35 PM 60.8 °F 59.0 °F 94% 29.68 in 10.0 mi NE 17.3 mph 25.3 mph 0.02 in   Overcast
6:55 PM 60.8 °F 59.0 °F 94% 29.69 in 10.0 mi NNE 16.1 mph 27.6 mph 0.03 in   Overcast
7:15 PM 60.8 °F 59.0 °F 94% 29.69 in 10.0 mi NNE 18.4 mph 26.5 mph 0.01 in   Overcast
7:35 PM 60.8 °F 59.0 °F 94% 29.68 in 10.0 mi NNE 18.4 mph 24.2 mph 0.02 in   Overcast
7:55 PM 60.8 °F 59.0 °F 94% 29.68 in 10.0 mi NNE 17.3 mph 24.2 mph 0.04 in   Overcast
8:15 PM 60.8 °F 59.0 °F 94% 29.68 in 10.0 mi NNE 15.0 mph 23.0 mph 0.02 in   Overcast
8:35 PM 60.8 °F 59.0 °F 94% 29.67 in 10.0 mi NNE 19.6 mph 25.3 mph 0.05 in   Overcast
8:55 PM 60.8 °F 59.0 °F 94% 29.67 in 10.0 mi NNE 21.9 mph 29.9 mph 0.06 in   Overcast
9:15 PM 60.8 °F 59.0 °F 94% 29.67 in 10.0 mi NNE 17.3 mph 24.2 mph 0.01 in   Overcast
9:35 PM 60.8 °F 59.0 °F 94% 29.67 in 10.0 mi NNE 20.7 mph 25.3 mph 0.01 in   Overcast
9:55 PM 59.0 °F 59.0 °F 100% 29.66 in 10.0 mi NNE 19.6 mph 25.3 mph 0.02 in   Overcast
10:15 PM 59.0 °F 59.0 °F 100% 29.66 in 10.0 mi NNE 17.3 mph 24.2 mph 0.02 in   Overcast
10:35 PM 59.0 °F 57.2 °F 94% 29.67 in 10.0 mi NNE 15.0 mph - 0.03 in   Overcast
10:55 PM 59.0 °F 57.2 °F 94% 29.66 in 10.0 mi NNE 15.0 mph 21.9 mph 0.06 in   Overcast
11:35 PM 59.0 °F 57.2 °F 94% 29.66 in 10.0 mi NNE 12.7 mph 20.7 mph 0.03 in   Overcast